Topeka, KS

4:02 AM CST on December 09, 2016 (GMT -0600)
Forbes

Weather History for KFOE - August, 2014

Change the Weather History Date:

Monday, August 25, 2014

  Actual Average Record
Temperature  
Mean Temperature 86 °F -  
Max Temperature 98 °F 89 °F 105 °F (2003)
Min Temperature 75 °F 63 °F 47 °F (1958)
Cooling Degree Days 20    
Growing Degree Days 36 (Base 50)    
Moisture  
Dew Point 68 °F    
Average Humidity 56    
Maximum Humidity 79    
Minimum Humidity 41    
Precipitation  
Precipitation 0.20 in - - ()
Sea Level Pressure  
Sea Level Pressure 29.92 in    
Wind  
Wind Speed 8 mph (South)    
Max Wind Speed 21 mph    
Max Gust Speed 25 mph    
Visibility 10 miles    
Events Rain , Thunderstorm    
Averages and records for this station are not official NWS values.
T = Trace of Precipitation, MM = Missing Value Source: NWS Daily Summary

Daily Weather History Graph

Daily Weather History Graph

Search for Another Location

Airport or City:

Trip Planner

Search our weather history database for the weather conditions in past years. The results will help you decide how hot, cold, wet, or windy it might be!

Date:

Astronomy

Aug. 25, 2014 Rise Set
Actual Time 6:45 AM CDT 8:03 PM CDT
Civil Twilight 6:17 AM CDT 8:31 PM CDT
Nautical Twilight 5:44 AM CDT 9:04 PM CDT
Astronomical Twilight 5:09 AM CDT 9:39 PM CDT
Moon 6:51 AM CDT (8/25) 7:55 PM CDT (8/25)
Length of Visible Light 14h 13m
Length of Day
13h 18m
New Moon, 0% of the Moon is Illuminated
Aug 25
New Moon
Sep 2
First Quarter
Sep 8
Full
Sep 15
Last Quarter
Sep 24
New

Hourly Weather History & Observations

Time (CDT) Temp. Heat Index Dew Point Humidity Pressure Visibility Wind Dir Wind Speed Gust Speed Precip Events Conditions
12:53 AM 84.0 °F 86.3 °F 66.0 °F 55% 29.87 in 10.0 mi South 9.2 mph - N/A   Clear
1:30 AM 84.0 °F 86.3 °F 66.0 °F 55% 29.91 in 10.0 mi South 10.4 mph - N/A Thunderstorm Clear
1:48 AM 84.2 °F 86.6 °F 66.2 °F 55% 29.91 in 10.0 mi South 9.2 mph - N/A Thunderstorm Thunderstorm
1:53 AM 84.0 °F 86.3 °F 66.0 °F 55% 29.87 in 10.0 mi South 10.4 mph - N/A Thunderstorm Thunderstorm
2:10 AM 84.0 °F 86.3 °F 66.0 °F 55% 29.92 in 10.0 mi SSW 6.9 mph - N/A Thunderstorm Mostly Cloudy
2:39 AM 84.0 °F 86.3 °F 66.0 °F 55% 29.93 in 10.0 mi Calm Calm - N/A Thunderstorm Thunderstorm
2:53 AM 82.9 °F 85.4 °F 66.9 °F 58% 29.88 in 10.0 mi SW 3.5 mph - N/A Thunderstorm Thunderstorm
3:07 AM 82.9 °F 85.4 °F 66.9 °F 58% 29.93 in 10.0 mi SW 6.9 mph - N/A Thunderstorm Mostly Cloudy
3:19 AM 82.9 °F 85.4 °F 66.9 °F 58% 29.93 in 10.0 mi Calm Calm - N/A Thunderstorm Thunderstorm
4:14 AM 82.0 °F 84.9 °F 68.0 °F 62% 29.95 in 10.0 mi North 6.9 mph - N/A Thunderstorm Overcast
4:53 AM 80.1 °F 81.9 °F 64.9 °F 60% 29.93 in 10.0 mi NE 5.8 mph - N/A Thunderstorm Thunderstorm
5:53 AM 77.0 °F - 70.0 °F 79% 29.90 in 3.0 mi South 20.7 mph 25.3 mph 0.20 in Rain , Thunderstorm Heavy Thunderstorms and Rain
6:34 AM 75.0 °F - 66.9 °F 76% 29.95 in 10.0 mi South 9.2 mph - 0.03 in   Scattered Clouds
7:53 AM 78.1 °F - 70.0 °F 76% 29.92 in 10.0 mi SSW 6.9 mph - N/A   Clear
9:53 AM 82.9 °F 87.0 °F 70.0 °F 65% 29.94 in 10.0 mi SSW 6.9 mph - N/A   Clear
10:53 AM 88.0 °F 92.1 °F 69.1 °F 53% 29.95 in 10.0 mi SSW 11.5 mph - N/A   Clear
11:53 AM 89.1 °F 94.1 °F 70.0 °F 53% 29.97 in 10.0 mi WNW 8.1 mph - N/A   Clear
12:53 PM 91.9 °F 94.5 °F 66.0 °F 42% 29.96 in 10.0 mi NW 9.2 mph - N/A   Clear
1:53 PM 93.9 °F 97.5 °F 66.9 °F 41% 29.94 in 10.0 mi North 4.6 mph - N/A   Clear
2:53 PM 96.1 °F 101.6 °F 69.1 °F 41% 29.92 in 10.0 mi Variable 5.8 mph - N/A   Clear
3:53 PM 95.0 °F 100.7 °F 69.1 °F 43% 29.91 in 10.0 mi NNE 5.8 mph - N/A   Partly Cloudy
4:53 PM 95.0 °F 100.7 °F 69.1 °F 43% 29.89 in 10.0 mi ENE 8.1 mph - N/A   Clear
5:53 PM 93.9 °F 99.1 °F 69.1 °F 44% 29.88 in 10.0 mi East 6.9 mph - N/A   Clear
6:53 PM 95.0 °F 100.7 °F 69.1 °F 43% 29.87 in 10.0 mi East 5.8 mph - N/A   Clear
7:53 PM 89.1 °F 97.0 °F 73.0 °F 59% 29.89 in 10.0 mi Calm Calm - N/A   Clear
10:53 PM 79.0 °F - 69.1 °F 72% 29.95 in 10.0 mi SE 5.8 mph - N/A   Clear
11:53 PM 81.0 °F 83.8 °F 68.0 °F 65% 29.96 in 10.0 mi SE 9.2 mph - N/A   Clear